GW4286 Weather Reports


time (UTC)temp
F
wind
direction
speed
knots
gust
knots
rain 1hr
in
rain 24hr
in
rain mn
in
humidity
%
barometer
mb
20260508141523 47 265 5.2 13.0 0.00 0.12 0.00 83 1006.6
20260508140023 47 199 5.2 12.2 0.00 0.13 0.00 82 1006.5
20260508134524 47 261 4.3 12.2 0.00 0.13 0.00 81 1006.5
20260508133019 47 313 5.2 11.3 0.00 0.16 0.00 82 1006.5
20260508131530 47 304 5.2 11.3 0.00 0.20 0.00 82 1006.4
20260508130019 47 329 4.3 10.4 0.00 0.23 0.00 83 1006.3
20260508124524 47 265 5.2 10.4 0.00 0.29 0.00 82 1006.2
20260508123030 47 243 5.2 9.6 0.00 0.35 0.00 82 1006.2
20260508121512 47 317 3.5 13.9 0.00 0.42 0.00 81 1006.1
20260508120016 47 263 4.3 8.7 0.00 0.50 0.00 82 1005.9
20260508114521 46 252 3.5 8.7 0.00 0.56 0.00 83 1005.8
20260508113029 46 293 1.7 7.0 0.00 0.56 0.00 84 1005.8
20260508111539 45 319 2.6 7.8 0.00 0.56 0.00 84 1005.8
20260508110012 45 299 4.3 9.6 0.00 0.56 0.00 85 1005.7
20260508104517 45 294 3.5 6.1 0.00 0.56 0.00 86 1005.5
20260508103029 44 333 2.6 8.7 0.00 0.56 0.00 87 1005.4
20260508101534 43 302 3.5 9.6 0.00 0.56 0.00 87 1005.2
20260508100029 43 317 5.2 9.6 0.00 0.56 0.00 88 1005.2
20260508094526 42 275 5.2 9.6 0.00 0.56 0.00 90 1004.9
20260508093020 41 302 7.0 9.6 0.00 0.56 0.00 92 1004.9
20260508091524 41 315 2.6 7.0 0.00 0.56 0.00 92 1004.7
20260508090008 41 325 2.6 5.2 0.00 0.56 0.00 93 1004.5
20260508084510 42 331 1.7 4.3 0.00 0.56 0.00 93 1004.2
20260508083016 42 277 5.2 10.4 0.00 0.56 0.00 93 1004.3
20260508081518 43 298 7.0 8.7 0.00 0.56 0.00 94 1004.3
20260508080004 43 319 6.1 9.6 0.00 0.56 0.00 95 1004.4
20260508074505 43 290 3.5 6.1 0.00 0.56 0.00 95 1004.5
20260508073016 43 338 1.7 4.3 0.00 0.56 0.00 95 1004.4
20260508071522 43 338 1.7 4.3 0.00 0.56 0.00 95 1004.4
20260508070022 43 338 1.7 4.3 0.00 0.57 0.00 95 1004.4
20260508064535 43 360 1.7 3.5 0.00 0.58 0.00 95 1004.4
20260508063010 43 360 2.6 4.3 0.00 0.59 0.00 96 1004.5
20260508061517 43 333 2.6 4.3 0.00 0.61 0.00 96 1004.4
20260508060021 43 333 1.7 3.5 0.00 0.64 0.00 96 1004.6
20260508054522 43 333 1.7 4.3 0.00 0.66 0.00 96 1004.6
20260508053028 43 355 2.6 7.0 0.00 0.67 0.00 96 1004.4
20260508051508 43 333 4.3 7.8 0.00 0.70 0.00 96 1004.2
20260508050020 44 306 3.5 7.0 0.00 0.74 0.00 96 1004.3
20260508044520 43 316 3.5 7.8 0.00 0.79 0.00 96 1004.5
20260508043023 43 310 3.5 7.8 0.00 0.81 0.00 96 1004.7
20260508041527 42 271 1.7 7.8 0.00 0.81 0.00 95 1004.8
20260508040017 42 232 0.9 2.6 0.00 0.81 0.00 95 1005.2
20260508034515 42 232 2.6 4.3 0.00 0.81 0.00 95 1005.2
20260508033024 42 234 4.3 6.1 0.00 0.81 0.00 95 1005.1
20260508031529 41 202 2.6 5.2 0.00 0.81 0.00 94 1005.0
20260508030026 42 201 2.6 5.2 0.00 0.81 0.00 95 1004.8
20260508024540 42 201 2.6 3.5 0.00 0.81 0.81 94 1004.5
20260508023026 42 201 0.9 3.5 0.00 0.81 0.81 93 1004.4
20260508021522 42 201 1.7 3.5 0.00 0.81 0.81 93 1004.7
20260508020024 43 203 1.7 3.5 0.00 0.81 0.81 93 1005.0
20260508014543 43 203 0.9 4.3 0.00 0.81 0.81 93 1005.2
20260508013028 44 196 1.7 3.5 0.00 0.81 0.81 93 1005.2
20260508011519 44 196 1.7 3.5 0.00 0.81 0.81 93 1005.2
20260508010028 44 196 0.9 3.5 0.00 0.81 0.81 92 1005.1
20260508004528 44 196 2.6 4.3 0.00 0.81 0.81 92 1004.8
20260508003050 44 219 1.7 3.5 0.00 0.81 0.81 91 1004.8
20260508001528 45 219 2.6 3.5 0.00 0.81 0.81 90 1004.9
20260508000003 45 219 1.7 3.5 0.00 0.81 0.81 89 1004.4
20260507234504 46 219 0.9 3.5 0.00 0.81 0.81 88 1004.5
20260507233006 46 207 1.7 3.5 0.00 0.81 0.81 87 1004.3
20260507231507 47 207 2.6 3.5 0.00 0.81 0.81 86 1004.2
20260507230016 48 207 2.6 5.2 0.00 0.81 0.81 86 1004.3
20260507224506 49 240 3.5 9.6 0.00 0.81 0.81 86 1004.5
20260507223004 49 198 2.6 5.2 0.00 0.81 0.81 87 1004.6
20260507221507 49 244 2.6 4.3 0.00 0.81 0.81 87 1004.3
20260507220012 49 238 2.6 4.3 0.00 0.81 0.81 88 1004.2
20260507214517 49 226 3.5 7.8 0.00 0.81 0.81 90 1004.3
20260507213003 48 218 5.2 8.7 0.00 0.81 0.81 91 1004.5
20260507211504 48 211 5.2 8.7 0.00 0.81 0.81 93 1004.6
20260507210031 48 218 5.2 7.8 0.00 0.81 0.81 93 1004.4
20260507204514 47 225 6.1 8.7 0.00 0.81 0.81 94 1004.4
20260507203030 47 226 7.0 10.4 0.00 0.81 0.81 95 1004.3
20260507201503 48 229 5.2 8.7 0.00 0.81 0.81 97 1004.0
20260507200004 47 225 6.1 8.7 0.00 0.81 0.81 97 1004.0
20260507194510 48 225 6.1 9.6 0.00 0.81 0.81 97 1004.1
20260507193012 47 234 5.2 8.7 0.00 0.81 0.81 98 1004.3
20260507191528 47 231 6.1 7.8 0.00 0.81 0.81 99 1004.5
20260507190023 46 241 6.1 8.7 0.00 0.81 0.81 98 1004.4
20260507184512 47 236 4.3 7.8 0.00 0.81 0.81 99 1004.2
20260507183011 47 244 3.5 7.0 0.00 0.81 0.81 100 1004.1
20260507181516 46 237 4.3 7.0 0.00 0.81 0.81 100 1004.3
20260507180019 47 242 3.5 7.0 0.00 0.81 0.81 100 1004.2
20260507174523 47 288 2.6 7.0 0.00 0.81 0.81 100 1004.0
20260507173006 46 277 1.7 7.8 0.00 0.81 0.81 100 1004.0
20260507171513 48 275 3.5 7.8 0.00 0.81 0.81 100 1004.3
20260507170017 48 293 3.5 8.7 0.00 0.81 0.81 100 1004.2
20260507164522 46 303 2.6 7.0 0.00 0.81 0.81 100 1004.3
20260507163025 46 317 5.2 8.7 0.01 0.81 0.81 100 1004.6
20260507161509 46 309 6.1 8.7 0.02 0.81 0.81 100 1004.6
20260507160012 45 291 3.5 7.0 0.03 0.81 0.81 100 1005.0
20260507154519 44 263 1.7 8.7 0.08 0.81 0.81 100 1005.3
20260507153028 45 220 3.5 7.0 0.10 0.80 0.80 100 1005.1
20260507151526 45 240 2.6 4.3 0.10 0.79 0.79 100 1004.4
20260507150010 45 221 0.9 4.3 0.08 0.77 0.77 100 1004.4
20260507144507 45 203 2.6 5.2 0.03 0.72 0.72 100 1005.0
20260507143005 46 236 3.5 7.0 0.04 0.70 0.70 100 1004.8